This demonstration page uses our WeatherBlox Daily Observations layout. Learn more.

Left ArrowRight Arrow

39.92423, -83.80882

Hourly Observations for September 14, 2015

Temp ( °F °C ) Dew Point ( °F °C ) Humidity (%) Winds ( mph kmh ) Pressure ( in mb ) Visibility ( mi km ) Precip ( " mm )
12:56 am 00:56 Clear 50 10 46 7.7 86 86 SW 7 11 30.1 1019 10 16.0934 0 0
1:56 am 01:56 Clear 49 9.4 46 7.7 89 89 SSW 6 9 30.11 1020 10 16.0934 0 0
2:56 am 02:56 Clear 49 9.4 46 7.7 89 89 SSW 6 9 30.12 1020 10 16.0934 0 0
3:56 am 03:56 Clear 48 8.8 46 7.7 93 93 SSW 6 9 30.14 1021 10 16.0934 0 0
4:56 am 04:56 Clear 46 7.7 44 6.6 93 93 Calm 30.15 1021 10 16.0934 0 0
5:56 am 05:56 Clear 44 6.6 44 6.6 100 100 Calm 30.17 1022 10 16.0934 0 0
6:56 am 06:56 Clear 46 7.7 45 7.2 97 97 SSW 5 7 30.19 1022 10 16.0934 0 0
7:56 am 07:56 Sunny 49 9.4 47 8.3 93 93 SSW 3 6 30.22 1023 10 16.0934 0 0
8:56 am 08:56 Sunny 55 12.7 50 10 84 84 SW 8 13 30.24 1024 10 16.0934 0 0
9:56 am 09:56 Sunny 61 16.1 51 10.5 70 70 SW 8 13 30.25 1025 10 16.0934 0 0
10:56 am 10:56 Sunny 67 19.4 50 10 55 55 WSW 10 17 30.27 1025 10 16.0934 0 0
11:56 am 11:56 Sunny 71 21.6 49 9.4 46 46 SW 12 19 30.26 1025 10 16.0934 0 0
12:56 pm 12:56 Sunny 72 22.2 49 9.4 44 44 WSW 10 17 30.25 1025 10 16.0934 0 0
1:56 pm 13:56 Sunny 74 23.3 49 9.4 41 41 WSW 9 15 30.25 1024 10 16.0934 0 0
2:56 pm 14:56 Sunny 75 23.8 49 9.4 40 40 W 13 20 30.23 1024 10 16.0934 0 0
3:56 pm 15:56 Sunny 75 23.8 50 10 42 42 SW 10 17 30.22 1024 10 16.0934 0 0
4:56 pm 16:56 Sunny 76 24.4 50 10 40 40 SW 7 11 30.22 1023 10 16.0934 0 0
5:56 pm 17:56 Sunny 74 23.3 49 9.4 41 41 SSW 8 13 30.22 1023 10 16.0934 0 0
6:56 pm 18:56 Sunny 72 22.2 51 10.5 48 48 SSW 5 7 30.21 1023 10 16.0934 0 0
7:56 pm 19:56 Clear 65 18.3 52 11.1 63 63 S 3 6 30.22 1023 10 16.0934 0 0
8:56 pm 20:56 Clear 63 17.2 51 10.5 65 65 S 3 6 30.22 1024 10 16.0934 0 0
9:56 pm 21:56 Clear 61 16.1 51 10.5 70 70 SSW 3 6 30.24 1024 10 16.0934 0 0
10:56 pm 22:56 Clear 59 15 51 10.5 75 75 S 5 7 30.25 1024 10 16.0934 0 0
11:56 pm 23:56 Clear 56 13.3 51 10.5 83 83 S 3 6 30.26 1025 10 16.0934 0 0

Powered by AerisWeather